Location: Staunton
(38.1490°N, 79.0720°W)
Time: 11:00:38
(UTC-04:00)

ISS - Pass Details

Date: 26 May 2020
Orbit: 417 x 420 km, 51.6° (Epoch: 26 May)

Event Time Altitude Azimuth Distance (km) Brightness Sun altitude
Rises 00:09:48 0° 315° (NW) 2,365 1.0 -28.8°
Reaches altitude 10° 00:12:01 10° 324° (NW) 1,499 -0.1 -28.9°
Enters shadow 00:13:01 17° 333° (NNW) 1,140 -0.8 -29.0°
